AirNav   Pilot Hours Calculator
 
 1156 users online  

PS13 Boeing Helicopters Center 3 South Heliport
Ridley Park, Pennsylvania, USA

GOING TO RIDLEY PARK?


FAA INFORMATION EFFECTIVE 30 JANUARY 2020

Location

FAA Identifier: PS13
Lat/Long: 39-51-33.4050N 075-19-10.6760W
39-51.556750N 075-19.177933W
39.8592792,-75.3196322
(estimated)
Elevation: 10 ft. / 3.0 m (surveyed)
Variation: 11W (1985)
Time zone: UTC -5 (UTC -4 during Daylight Saving Time)
Zip code: 19078

Heliport Operations

Heliport use: Private use. Permission required prior to landing
Activation date: 12/1974
Control tower: no
ARTCC: NEW YORK CENTER
FSS: WILLIAMSPORT FLIGHT SERVICE STATION
Attendance: DAYLIGHT HOURS
Wind indicator: yes
Segmented circle: yes

Heliport Communications

WX ASOS at PHL (4 nm E): PHONE 215-492-9617
WX AWOS-3T at OQN (14 nm NW): 121.4 ((610) 692-6190)
WX AWOS-3 at LOM (17 nm N): 118.925 (215-646-1068)
WX ASOS at ILG (17 nm SW): PHONE 302-328-1536
WX ASOS at PNE (20 nm NE): 121.15 (215-677-0146)

Nearby radio navigation aids

VOR radial/distance  VOR name  Freq  Var
OODr007/13.4WOODSTOWN VORTAC112.8010W
MXEr111/16.5MODENA VORTAC113.2009W
DQOr061/17.1DUPONT VORTAC114.0010W
PTWr162/24.4POTTSTOWN VORTAC116.5009W
VCNr330/25.2CEDAR LAKE VOR/DME115.2010W
ARDr229/30.3YARDLEY VOR/DME108.2010W
GXUr267/34.5MC GUIRE VORTAC110.6012W
ENOr023/38.7SMYRNA VORTAC111.4009W

 
NDB name  Hdg/Dist  Freq  Var  ID
AMBLER198/16.127512WING .. -. --.
RAINBOW353/27.836311WRNB .-. -. -...

Heliport Services

Airframe service: NONE
Powerplant service: NONE

Runway Information

Helipad H1

Dimensions: 100 x 100 ft. / 30 x 30 m
Surface: asphalt
Traffic pattern: leftleft
Obstructions: tower, lighted, 400 ft. from runway

Helipad H2

Dimensions: 100 x 100 ft. / 30 x 30 m
Surface: asphalt
Traffic pattern: leftleft
Obstructions: tower, lighted, 400 ft. from runway

Heliport Ownership and Management from official FAA records

Ownership: Privately-owned
Manager: BRYAN SPADT
PO BOX 16858
PHILADELPHIA, PA 19142
Phone 610-591-5635

Heliport Operational Statistics

Aircraft based on the field: 1
Helicopters: 1
    

Additional Remarks

FOR CD CTC PHILADELPHIA APCH AT 800-354-9884.

Instrument Procedures

There are no published instrument procedures at PS13.

Some nearby airports with instrument procedures:

KPHL - Philadelphia International Airport (4 nm E)
7N7 - Spitfire Aerodrome (8 nm SW)
KOQN - Brandywine Regional Airport (14 nm NW)
17N - Cross Keys Airport (16 nm SE)
KLOM - Wings Field Airport (17 nm N)
KILG - New Castle Airport (17 nm SW)
19N - Camden County Airport (18 nm E)
KPNE - Northeast Philadelphia Airport (20 nm NE)
 
Loc | Ops | Rwys | IFR | FBO | Links
Com | Nav | Svcs | Stats | Notes
Area around PS13 (Boeing Helicopters Center 3 South Heliport)
 
Road maps at: MapQuest Bing Google
 
Aerial photo
No photo
 
Sectional chart

 
Airport distance calculator
Flying to Boeing Helicopters Center 3 South Heliport? Find the distance to fly.

From to PS13

Sunrise and sunset
Times for 26-Feb-2020
 Local
(UTC-5)
 Zulu
(UTC)
Morning civil twilight06:1311:13
Sunrise06:4011:40
Sunset17:4922:49
Evening civil twilight18:1623:16

Current date and time
Zulu (UTC)  27-Feb-2020 03:51:28
Local (UTC-5)  26-Feb-2020 22:51:28
 
METAR
KPHL 
4nm E 
270319Z 08013KT 3SM BR OVC003 07/06 A2961 RMK AO2 PRESFR T00720061
KOQN 
14nm NW 
270335Z AUTO 08012G17KT 1 3/4SM BR OVC002 07/06 A2958 RMK AO2
KLOM 
17nm N 
270335Z AUTO 09012KT 2 1/2SM BR OVC002 07/06 A2961 RMK AO2 T00660065
KILG 
17nm SW 
270336Z 09010KT 10SM OVC004 08/07 A2957 RMK AO2 PRESFR T00830067 $
KPNE 
19nm NE 
270336Z 09014KT 1 3/4SM BR OVC002 08/07 A2964 RMK AO2 RAB0255E04 P0000 T00830067
TAF
KPHL 
4nm E 
270010Z 2700/2806 11012KT P6SM OVC008 FM270300 12012KT 4SM SHRA BR OVC006 TEMPO 2704/2707 2SM SHRA BR OVC004 FM270700 25014G24KT 6SM -SHRA BKN025 FM271000 26015G27KT P6SM SCT030 FM271500 28020G32KT P6SM SCT040
KILG 
17nm SW 
262103Z 2621/2718 11008KT P6SM OVC010 FM270200 11010KT 4SM SHRA BR BKN012 OVC020 WS020/16045KT TEMPO 2703/2706 2SM SHRA BR OVC005 FM270600 25014G24KT 6SM -SHRA BKN025 OVC040 FM271000 26015G25KT P6SM SCT040 BKN200 FM271500 28020G32KT P6SM SCT040
KPNE 
19nm NE 
270010Z 2700/2724 11010KT P6SM OVC005 FM270300 12012KT 4SM SHRA BR OVC005 TEMPO 2704/2707 2SM SHRA BR OVC003 FM270800 25014G24KT 6SM -SHRA BKN015 FM271100 26015G25KT P6SM SCT025 FM271500 28020G32KT P6SM SCT040
NOTAMs
Click for the latest NOTAMs
NOTAMs are issued by the DoD/FAA and will open in a separate window not controlled by AirNav.

 

 
 

Would you like to see your business listed on this page?

 If your business provides an interesting product or service to pilots, flight crews, aircraft, or users of the Boeing Helicopters Center 3 South Heliport, you should consider listing it here.  To start the listing process, click on the button below
 
Add a business
 

Other Pages about Boeing Helicopters Center 3 South Heliport

Update a link
 
Copyright © AirNav, LLC. All rights reserved. Privacy Policy  Contact